SKW6461 KTYS-KORD

Flight info

Callsign SKW6461
Flight time 1h 22m
Altitude 34000
Route VXV HEVAN BONNT VEECK5
Aircraft CRJ7/M-SDFGIRWY/S

Departure

Time 2026-05-09 02:43
Airport McGhee Tyson Airport (KTYS)

Arrival

Time 2026-05-09 04:06
Airport Chicago O'Hare International Airport (KORD)
Time Latitude Longitude Altitude Speed Heading
2026-05-09 02:18 35.80667 -83.99175 979 ft 0 kts 137°
2026-05-09 02:33 35.80676 -83.99185 984 ft 3 kts 134°
2026-05-09 02:33 35.80689 -83.99204 983 ft 3 kts 126°
2026-05-09 02:34 35.80700 -83.99225 966 ft 3 kts 118°
2026-05-09 02:34 35.80709 -83.99247 966 ft 3 kts 112°
2026-05-09 02:34 35.80713 -83.99263 966 ft 1 kts 109°
2026-05-09 02:34 35.80714 -83.99267 966 ft 0 kts 109°
2026-05-09 02:37 35.80715 -83.99267 966 ft 0 kts 109°
2026-05-09 02:38 35.80714 -83.99264 971 ft 1 kts 90°
2026-05-09 02:39 35.80741 -83.99236 969 ft 11 kts 19°
2026-05-09 02:39 35.80826 -83.99233 970 ft 14 kts 32°
2026-05-09 02:39 35.80893 -83.99154 966 ft 13 kts 45°
2026-05-09 02:39 35.80960 -83.99073 969 ft 14 kts 44°
2026-05-09 02:40 35.81031 -83.98984 970 ft 15 kts 45°
2026-05-09 02:40 35.81107 -83.98892 968 ft 15 kts 44°
2026-05-09 02:40 35.81183 -83.98800 968 ft 15 kts 45°
2026-05-09 02:40 35.81259 -83.98707 969 ft 15 kts 45°
2026-05-09 02:41 35.81335 -83.98614 970 ft 15 kts 45°
2026-05-09 02:41 35.81411 -83.98522 971 ft 15 kts 44°
2026-05-09 02:41 35.81486 -83.98431 967 ft 15 kts 45°
2026-05-09 02:41 35.81558 -83.98343 976 ft 15 kts 45°
2026-05-09 02:42 35.81637 -83.98266 985 ft 14 kts 30°
2026-05-09 02:42 35.81715 -83.98244 975 ft 9 kts 325°
2026-05-09 02:42 35.81723 -83.98311 977 ft 9 kts 236°
2026-05-09 02:42 35.81677 -83.98369 977 ft 14 kts 225°
2026-05-09 02:43 35.81458 -83.98634 964 ft 81 kts 225°
2026-05-09 02:43 35.80888 -83.99329 963 ft 144 kts 225°
2026-05-09 02:43 35.80095 -84.00290 1309 ft 164 kts 224°
2026-05-09 02:43 35.79278 -84.01246 2177 ft 162 kts 224°
2026-05-09 02:44 35.78459 -84.02184 3007 ft 160 kts 222°
2026-05-09 02:44 35.77644 -84.03121 3742 ft 164 kts 220°
2026-05-09 02:44 35.76752 -84.04131 4310 ft 180 kts 221°
2026-05-09 02:44 35.75861 -84.05179 5205 ft 180 kts 223°
2026-05-09 02:45 35.74926 -84.06312 5624 ft 197 kts 223°
2026-05-09 02:45 35.73892 -84.07594 5820 ft 225 kts 224°
2026-05-09 02:45 35.72753 -84.09013 5974 ft 238 kts 224°
2026-05-09 02:45 35.71567 -84.10482 6043 ft 245 kts 224°
2026-05-09 02:46 35.70375 -84.11995 6333 ft 246 kts 225°
2026-05-09 02:46 35.69166 -84.13552 6817 ft 259 kts 226°
2026-05-09 02:46 35.68072 -84.15327 7388 ft 265 kts 248°
2026-05-09 02:46 35.67930 -84.17578 8065 ft 272 kts 282°
2026-05-09 02:47 35.68854 -84.19580 8772 ft 278 kts 309°
2026-05-09 02:47 35.70153 -84.21351 9525 ft 280 kts 314°
2026-05-09 02:47 35.71771 -84.22752 10224 ft 285 kts 326°
2026-05-09 02:47 35.73547 -84.23831 10847 ft 291 kts 337°
2026-05-09 02:48 35.75537 -84.24437 11497 ft 297 kts 345°
2026-05-09 02:48 35.77580 -84.24849 12105 ft 300 kts 346°
2026-05-09 02:48 35.79657 -84.25243 12699 ft 303 kts 346°
2026-05-09 02:48 35.81745 -84.25643 13337 ft 305 kts 345°
2026-05-09 02:49 35.83793 -84.26086 13717 ft 316 kts 344°
2026-05-09 02:49 35.85995 -84.26608 13876 ft 324 kts 343°
2026-05-09 02:49 35.88257 -84.27147 13946 ft 337 kts 344°
2026-05-09 02:49 35.90553 -84.27689 13989 ft 344 kts 344°
2026-05-09 02:50 35.92921 -84.28245 14004 ft 347 kts 344°
2026-05-09 02:50 35.95289 -84.28806 14008 ft 348 kts 344°
2026-05-09 02:50 35.97676 -84.29372 14014 ft 350 kts 344°
2026-05-09 02:50 36.00083 -84.29938 14425 ft 351 kts 344°
2026-05-09 02:51 36.02499 -84.30508 15030 ft 354 kts 344°
2026-05-09 02:51 36.04925 -84.31082 15618 ft 356 kts 343°
2026-05-09 02:51 36.07422 -84.31676 15756 ft 374 kts 344°
2026-05-09 02:51 36.10006 -84.32285 16201 ft 380 kts 344°
2026-05-09 02:52 36.12606 -84.32906 16709 ft 383 kts 343°
2026-05-09 02:52 36.15229 -84.33531 17230 ft 384 kts 343°
2026-05-09 02:52 36.17862 -84.34151 17794 ft 386 kts 343°
2026-05-09 02:52 36.20510 -84.34777 18317 ft 389 kts 343°
2026-05-09 02:53 36.23181 -84.35411 18772 ft 390 kts 343°
2026-05-09 02:53 36.25862 -84.36054 19208 ft 392 kts 343°
2026-05-09 02:53 36.28522 -84.36685 19616 ft 394 kts 342°
2026-05-09 02:53 36.31254 -84.37331 20062 ft 396 kts 342°
2026-05-09 02:54 36.33967 -84.37985 20484 ft 398 kts 342°
2026-05-09 02:54 36.36694 -84.38634 20879 ft 400 kts 342°
2026-05-09 02:54 36.39404 -84.39281 21286 ft 402 kts 342°
2026-05-09 02:54 36.42159 -84.39939 21677 ft 404 kts 342°
2026-05-09 02:55 36.44932 -84.40603 22040 ft 406 kts 342°
2026-05-09 02:55 36.47714 -84.41266 22418 ft 408 kts 342°
2026-05-09 02:55 36.50520 -84.41945 22706 ft 411 kts 342°
2026-05-09 02:55 36.53333 -84.42615 23083 ft 412 kts 341°
2026-05-09 02:56 36.56153 -84.43288 23450 ft 414 kts 342°
2026-05-09 02:56 36.59076 -84.43480 23700 ft 434 kts
2026-05-09 02:56 36.62047 -84.42480 23946 ft 448 kts 11°
2026-05-09 02:56 36.64999 -84.41162 24182 ft 452 kts 13°
2026-05-09 02:57 36.67909 -84.39776 24417 ft 456 kts 13°
2026-05-09 02:57 36.70872 -84.38315 24649 ft 459 kts 14°
2026-05-09 02:57 36.73837 -84.36825 24890 ft 461 kts 14°
2026-05-09 02:57 36.76820 -84.35307 25119 ft 464 kts 14°
2026-05-09 02:58 36.79828 -84.33766 25288 ft 468 kts 14°
2026-05-09 02:58 36.82848 -84.32212 25521 ft 470 kts 14°
2026-05-09 02:58 36.85878 -84.30642 25748 ft 472 kts 14°
2026-05-09 02:58 36.88918 -84.29061 25968 ft 475 kts 14°
2026-05-09 02:59 36.91979 -84.27461 26182 ft 477 kts 14°
2026-05-09 02:59 36.95051 -84.25847 26391 ft 479 kts 14°
2026-05-09 02:59 36.98121 -84.24229 26597 ft 481 kts 14°
2026-05-09 02:59 37.01180 -84.22611 26794 ft 483 kts 14°
2026-05-09 03:00 37.04273 -84.20970 26990 ft 484 kts 14°
2026-05-09 03:00 37.07382 -84.19319 27189 ft 486 kts 14°
2026-05-09 03:00 37.10502 -84.17658 27379 ft 488 kts 14°
2026-05-09 03:00 37.13637 -84.15983 27577 ft 489 kts 14°
2026-05-09 03:01 37.16772 -84.14307 27747 ft 490 kts 14°
2026-05-09 03:01 37.19978 -84.13036 27892 ft 474 kts 359°
2026-05-09 03:01 37.23185 -84.12907 28058 ft 451 kts 342°
2026-05-09 03:01 37.26139 -84.13896 28221 ft 428 kts 326°
2026-05-09 03:02 37.28636 -84.15784 28385 ft 416 kts 316°
2026-05-09 03:02 37.31025 -84.17786 28534 ft 421 kts 319°
2026-05-09 03:02 37.33675 -84.19540 28675 ft 431 kts 326°
2026-05-09 03:02 37.35535 -84.20471 28778 ft 437 kts 330°
2026-05-09 03:03 37.39382 -84.22085 28992 ft 441 kts 332°
2026-05-09 03:03 37.42311 -84.23280 29128 ft 442 kts 332°
2026-05-09 03:03 37.44285 -84.24122 29243 ft 441 kts 330°
2026-05-09 03:03 37.48102 -84.25851 29445 ft 441 kts 330°
2026-05-09 03:04 37.51000 -84.27159 29575 ft 442 kts 330°
2026-05-09 03:04 37.55828 -84.29336 29787 ft 444 kts 330°
2026-05-09 03:04 37.58735 -84.30646 29923 ft 444 kts 330°
2026-05-09 03:05 37.61636 -84.31962 30037 ft 445 kts 330°
2026-05-09 03:05 37.67483 -84.34608 30225 ft 446 kts 330°
2026-05-09 03:06 37.73335 -84.37262 30386 ft 447 kts 329°
2026-05-09 03:06 37.79203 -84.39930 30516 ft 449 kts 329°
2026-05-09 03:07 37.85087 -84.42606 30662 ft 450 kts 329°
2026-05-09 03:07 37.90987 -84.45299 30775 ft 450 kts 329°
2026-05-09 03:08 37.96854 -84.47976 30895 ft 451 kts 330°
2026-05-09 03:08 38.02766 -84.50681 30996 ft 452 kts 330°
2026-05-09 03:09 38.08685 -84.53392 31080 ft 453 kts 330°
2026-05-09 03:09 38.14613 -84.56120 31151 ft 453 kts 330°
2026-05-09 03:10 38.20552 -84.58846 31212 ft 454 kts 330°
2026-05-09 03:10 38.26501 -84.61585 31272 ft 454 kts 330°
2026-05-09 03:11 38.32445 -84.64333 31318 ft 455 kts 330°
2026-05-09 03:11 38.38403 -84.67083 31374 ft 455 kts 330°
2026-05-09 03:12 38.44366 -84.69845 31402 ft 456 kts 330°
2026-05-09 03:12 38.50325 -84.72612 31448 ft 456 kts 330°
2026-05-09 03:13 38.59277 -84.76773 31546 ft 459 kts 330°
2026-05-09 03:13 38.65289 -84.79572 31759 ft 460 kts 330°
2026-05-09 03:14 38.68295 -84.80975 31886 ft 459 kts 330°
2026-05-09 03:14 38.71291 -84.82378 32013 ft 459 kts 330°
2026-05-09 03:14 38.74291 -84.83776 32145 ft 458 kts 330°
2026-05-09 03:14 38.77244 -84.85162 32248 ft 458 kts 329°
2026-05-09 03:15 38.83239 -84.87966 32483 ft 457 kts 329°
2026-05-09 03:15 38.86219 -84.89364 32615 ft 457 kts 329°
2026-05-09 03:15 38.89210 -84.90765 32719 ft 457 kts 329°
2026-05-09 03:16 38.95177 -84.93569 32941 ft 456 kts 329°
2026-05-09 03:16 38.98158 -84.94974 33048 ft 455 kts 329°
2026-05-09 03:16 39.01138 -84.96377 33124 ft 455 kts 329°
2026-05-09 03:17 39.04099 -84.97774 33241 ft 455 kts 329°
2026-05-09 03:17 39.07070 -84.99175 33348 ft 454 kts 329°
2026-05-09 03:17 39.13001 -85.01977 33541 ft 453 kts 328°
2026-05-09 03:18 39.15964 -85.03378 33675 ft 452 kts 328°
2026-05-09 03:18 39.18915 -85.04774 33804 ft 451 kts 328°
2026-05-09 03:18 39.24804 -85.07571 33902 ft 452 kts 328°
2026-05-09 03:19 39.30718 -85.10380 33923 ft 454 kts 329°
2026-05-09 03:19 39.36624 -85.13191 33928 ft 456 kts 329°
2026-05-09 03:20 39.42607 -85.15983 33927 ft 464 kts 334°
2026-05-09 03:20 39.45856 -85.16646 33928 ft 482 kts 347°
2026-05-09 03:20 39.49256 -85.16369 33931 ft 498 kts 359°
2026-05-09 03:21 39.52640 -85.15163 33930 ft 513 kts 12°
2026-05-09 03:21 39.55883 -85.13048 33932 ft 527 kts 24°
2026-05-09 03:21 39.61747 -85.07300 33921 ft 525 kts 25°
2026-05-09 03:22 39.64909 -85.05080 33934 ft 507 kts 12°
2026-05-09 03:22 39.68204 -85.03722 33939 ft 491 kts
2026-05-09 03:22 39.74836 -85.01727 33951 ft 497 kts
2026-05-09 03:23 39.78019 -84.99805 33955 ft 513 kts 22°
2026-05-09 03:23 39.81002 -84.97192 33951 ft 514 kts 23°
2026-05-09 03:23 39.84138 -84.95157 33947 ft 495 kts
2026-05-09 03:23 39.87400 -84.94058 33947 ft 475 kts 356°
2026-05-09 03:24 39.90624 -84.93892 33947 ft 453 kts 343°
2026-05-09 03:24 39.93641 -84.94630 33944 ft 431 kts 330°
2026-05-09 03:24 39.96296 -84.96197 33942 ft 410 kts 317°
2026-05-09 03:24 39.98587 -84.98316 33929 ft 400 kts 311°
2026-05-09 03:25 40.02600 -85.03140 33900 ft 392 kts 305°
2026-05-09 03:25 40.06381 -85.08253 33896 ft 390 kts 304°
2026-05-09 03:26 40.08216 -85.10856 33760 ft 390 kts 303°
2026-05-09 03:26 40.10021 -85.13509 33596 ft 390 kts 302°
2026-05-09 03:26 40.11828 -85.16161 33490 ft 391 kts 303°
2026-05-09 03:26 40.13678 -85.18765 33390 ft 392 kts 304°
2026-05-09 03:27 40.17449 -85.23906 33204 ft 391 kts 304°
2026-05-09 03:27 40.19325 -85.26473 33091 ft 390 kts 304°
2026-05-09 03:27 40.21201 -85.29049 32804 ft 390 kts 304°
2026-05-09 03:28 40.23061 -85.31598 32298 ft 387 kts 304°
2026-05-09 03:28 40.24912 -85.34150 31562 ft 385 kts 305°
2026-05-09 03:28 40.26759 -85.36695 30801 ft 385 kts 305°
2026-05-09 03:28 40.28597 -85.39227 30149 ft 383 kts 305°
2026-05-09 03:29 40.30409 -85.41724 29474 ft 381 kts 305°
2026-05-09 03:29 40.32227 -85.44236 28805 ft 378 kts 305°
2026-05-09 03:29 40.34028 -85.46722 28276 ft 373 kts 305°
2026-05-09 03:29 40.35810 -85.49177 28047 ft 369 kts 305°
2026-05-09 03:30 40.37573 -85.51600 27952 ft 365 kts 305°
2026-05-09 03:30 40.39332 -85.54015 27911 ft 364 kts 305°
2026-05-09 03:30 40.41086 -85.56424 27890 ft 367 kts 305°
2026-05-09 03:30 40.42859 -85.58874 27887 ft 374 kts 305°
2026-05-09 03:31 40.44658 -85.61374 27892 ft 380 kts 305°
2026-05-09 03:31 40.46477 -85.63911 27895 ft 381 kts 305°
2026-05-09 03:31 40.48287 -85.66438 27888 ft 378 kts 305°
2026-05-09 03:31 40.50063 -85.68908 27888 ft 375 kts 305°
2026-05-09 03:32 40.51850 -85.71391 27884 ft 373 kts 306°
2026-05-09 03:32 40.53907 -85.73526 27888 ft 384 kts 319°
2026-05-09 03:32 40.56252 -85.75248 27887 ft 386 kts 322°
2026-05-09 03:32 40.58646 -85.76872 27884 ft 388 kts 323°
2026-05-09 03:33 40.61070 -85.78458 27881 ft 389 kts 324°
2026-05-09 03:33 40.63516 -85.79999 27887 ft 391 kts 326°
2026-05-09 03:33 40.66187 -85.80990 27997 ft 413 kts 345°
2026-05-09 03:33 40.69113 -85.80958 27982 ft 425 kts 354°
2026-05-09 03:34 40.72069 -85.80726 27886 ft 424 kts 353°
2026-05-09 03:34 40.74999 -85.80652 27879 ft 420 kts 349°
2026-05-09 03:34 40.77903 -85.80824 27876 ft 416 kts 346°
2026-05-09 03:34 40.80677 -85.81524 27873 ft 395 kts 329°
2026-05-09 03:35 40.82984 -85.83257 27891 ft 373 kts 312°
2026-05-09 03:35 40.84914 -85.85506 27883 ft 368 kts 307°
2026-05-09 03:35 40.86732 -85.87871 27874 ft 366 kts 306°
2026-05-09 03:35 40.88430 -85.90303 27869 ft 360 kts 298°
2026-05-09 03:36 40.89636 -85.93123 27882 ft 349 kts 288°
2026-05-09 03:36 40.90590 -85.96066 27877 ft 348 kts 285°
2026-05-09 03:36 40.91442 -85.99058 27871 ft 347 kts 284°
2026-05-09 03:36 40.92247 -86.02059 27867 ft 347 kts 284°
2026-05-09 03:37 40.93055 -86.05066 27863 ft 347 kts 284°
2026-05-09 03:37 40.93949 -86.08048 27863 ft 351 kts 289°
2026-05-09 03:37 40.95054 -86.10939 27864 ft 353 kts 290°
2026-05-09 03:37 40.96179 -86.13826 27862 ft 353 kts 290°
2026-05-09 03:38 40.97252 -86.16751 27862 ft 352 kts 289°
2026-05-09 03:38 40.98265 -86.19691 27862 ft 351 kts 288°
2026-05-09 03:38 40.99288 -86.22683 27862 ft 352 kts 288°
2026-05-09 03:38 41.00280 -86.25587 27865 ft 352 kts 288°
2026-05-09 03:39 41.01290 -86.28546 27862 ft 352 kts 288°
2026-05-09 03:39 41.02300 -86.31508 27861 ft 352 kts 288°
2026-05-09 03:39 41.03312 -86.34470 27862 ft 353 kts 288°
2026-05-09 03:39 41.04318 -86.37435 27598 ft 353 kts 288°
2026-05-09 03:40 41.05327 -86.40403 27230 ft 352 kts 288°
2026-05-09 03:40 41.06331 -86.43352 26905 ft 351 kts 288°
2026-05-09 03:40 41.07328 -86.46293 26594 ft 349 kts 288°
2026-05-09 03:40 41.08324 -86.49230 26297 ft 348 kts 289°
2026-05-09 03:41 41.09313 -86.52147 26013 ft 346 kts 289°
2026-05-09 03:41 41.10294 -86.55046 25737 ft 345 kts 289°
2026-05-09 03:41 41.11272 -86.57945 25479 ft 344 kts 289°
2026-05-09 03:41 41.12252 -86.60834 25224 ft 342 kts 289°
2026-05-09 03:42 41.13271 -86.63684 24940 ft 343 kts 291°
2026-05-09 03:42 41.14390 -86.66483 24585 ft 343 kts 294°
2026-05-09 03:42 41.15566 -86.69237 24254 ft 342 kts 294°
2026-05-09 03:42 41.16731 -86.71980 23940 ft 340 kts 294°
2026-05-09 03:43 41.17882 -86.74728 23628 ft 339 kts 294°
2026-05-09 03:43 41.19019 -86.77457 23300 ft 338 kts 295°
2026-05-09 03:43 41.20161 -86.80196 22937 ft 337 kts 295°
2026-05-09 03:43 41.21281 -86.82885 22594 ft 337 kts 295°
2026-05-09 03:44 41.22432 -86.85643 22268 ft 336 kts 295°
2026-05-09 03:44 41.23559 -86.88357 22021 ft 334 kts 295°
2026-05-09 03:44 41.24672 -86.91022 21917 ft 334 kts 295°
2026-05-09 03:44 41.25796 -86.93729 21872 ft 333 kts 295°
2026-05-09 03:45 41.26915 -86.96427 21856 ft 334 kts 295°
2026-05-09 03:45 41.28036 -86.99124 21848 ft 334 kts 295°
2026-05-09 03:45 41.28779 -87.00916 21845 ft 334 kts 295°
2026-05-09 03:45 41.30280 -87.04541 21847 ft 335 kts 295°
2026-05-09 03:46 41.31039 -87.06372 21846 ft 335 kts 295°
2026-05-09 03:46 41.32162 -87.09088 21848 ft 335 kts 295°
2026-05-09 03:46 41.33290 -87.11819 21609 ft 337 kts 295°
2026-05-09 03:46 41.34416 -87.14541 21361 ft 336 kts 295°
2026-05-09 03:47 41.35540 -87.17271 21133 ft 336 kts 295°
2026-05-09 03:47 41.36815 -87.19834 20899 ft 340 kts 307°
2026-05-09 03:47 41.38503 -87.22052 20693 ft 343 kts 313°
2026-05-09 03:47 41.40337 -87.24140 20501 ft 343 kts 315°
2026-05-09 03:48 41.42151 -87.26155 20318 ft 342 kts 315°
2026-05-09 03:48 41.43961 -87.28204 20147 ft 341 kts 314°
2026-05-09 03:48 41.45729 -87.30299 20026 ft 339 kts 313°
2026-05-09 03:48 41.47480 -87.32396 19904 ft 339 kts 313°
2026-05-09 03:49 41.49239 -87.34503 19624 ft 339 kts 314°
2026-05-09 03:49 41.51024 -87.36563 19337 ft 340 kts 317°
2026-05-09 03:49 41.52941 -87.38421 19068 ft 341 kts 321°
2026-05-09 03:49 41.54929 -87.40140 18808 ft 340 kts 323°
2026-05-09 03:50 41.56928 -87.41838 18556 ft 339 kts 323°
2026-05-09 03:50 41.58912 -87.43542 18202 ft 338 kts 322°
2026-05-09 03:50 41.60861 -87.45278 17764 ft 336 kts 322°
2026-05-09 03:50 41.62718 -87.47086 17295 ft 331 kts 311°
2026-05-09 03:51 41.64370 -87.49170 17047 ft 325 kts 320°
2026-05-09 03:51 41.66217 -87.50918 16556 ft 328 kts 321°
2026-05-09 03:51 41.68184 -87.52580 15958 ft 333 kts 326°
2026-05-09 03:51 41.70105 -87.54248 15389 ft 334 kts 319°
2026-05-09 03:52 41.71845 -87.56327 15019 ft 334 kts 314°
2026-05-09 03:52 41.73542 -87.58448 14725 ft 332 kts 315°
2026-05-09 03:52 41.75225 -87.60554 14428 ft 331 kts 314°
2026-05-09 03:52 41.76893 -87.62671 14138 ft 329 kts 314°
2026-05-09 03:53 41.78565 -87.64751 13857 ft 328 kts 317°
2026-05-09 03:53 41.80363 -87.66639 13574 ft 327 kts 321°
2026-05-09 03:53 41.82173 -87.68485 13289 ft 324 kts 320°
2026-05-09 03:53 41.83814 -87.70515 12975 ft 320 kts 308°
2026-05-09 03:54 41.85073 -87.72927 12749 ft 311 kts 302°
2026-05-09 03:54 41.86174 -87.75313 12554 ft 301 kts 301°
2026-05-09 03:54 41.87273 -87.77734 12141 ft 299 kts 301°
2026-05-09 03:54 41.88169 -87.80188 11713 ft 298 kts 285°
2026-05-09 03:55 41.88480 -87.82936 11274 ft 297 kts 276°
2026-05-09 03:55 41.88558 -87.85651 11205 ft 284 kts 272°
2026-05-09 03:55 41.88531 -87.88248 11026 ft 272 kts 271°
2026-05-09 03:55 41.88495 -87.90734 10794 ft 263 kts 271°
2026-05-09 03:56 41.88454 -87.93176 10395 ft 261 kts 271°
2026-05-09 03:56 41.88422 -87.95605 10001 ft 259 kts 272°
2026-05-09 03:56 41.88411 -87.98018 9587 ft 258 kts 272°
2026-05-09 03:56 41.88385 -88.00433 9148 ft 257 kts 271°
2026-05-09 03:57 41.88337 -88.02791 8706 ft 256 kts 270°
2026-05-09 03:57 41.88271 -88.05171 8269 ft 254 kts 269°
2026-05-09 03:57 41.88194 -88.07536 7821 ft 253 kts 269°
2026-05-09 03:57 41.88116 -88.09891 7395 ft 251 kts 269°
2026-05-09 03:58 41.88038 -88.12231 6957 ft 250 kts 269°
2026-05-09 03:58 41.87960 -88.14559 6508 ft 249 kts 268°
2026-05-09 03:58 41.87880 -88.16870 6069 ft 247 kts 268°
2026-05-09 03:58 41.87802 -88.19169 5658 ft 243 kts 268°
2026-05-09 03:59 41.87720 -88.21344 5628 ft 224 kts 267°
2026-05-09 03:59 41.87750 -88.23342 5545 ft 207 kts 286°
2026-05-09 03:59 41.88611 -88.24780 5436 ft 200 kts 332°
2026-05-09 03:59 41.89970 -88.24924 5322 ft 201 kts 11°
2026-05-09 04:00 41.91319 -88.24388 5278 ft 202 kts 13°
2026-05-09 04:00 41.92646 -88.23721 5033 ft 208 kts 30°
2026-05-09 04:00 41.93537 -88.22242 4711 ft 212 kts 65°
2026-05-09 04:00 41.94162 -88.20374 4400 ft 220 kts 65°
2026-05-09 04:01 41.94781 -88.18534 4193 ft 211 kts 66°
2026-05-09 04:01 41.95365 -88.16773 4091 ft 202 kts 66°
2026-05-09 04:01 41.95879 -88.15072 4033 ft 191 kts 73°
2026-05-09 04:01 41.96187 -88.13390 4009 ft 178 kts 81°
2026-05-09 04:02 41.96377 -88.11768 4003 ft 169 kts 83°
2026-05-09 04:02 41.96503 -88.10229 3992 ft 160 kts 88°
2026-05-09 04:02 41.96554 -88.08761 3713 ft 156 kts 90°
2026-05-09 04:02 41.96564 -88.07311 3334 ft 160 kts 94°
2026-05-09 04:03 41.96511 -88.05790 2976 ft 164 kts 96°
2026-05-09 04:03 41.96476 -88.04264 2612 ft 163 kts 92°
2026-05-09 04:03 41.96516 -88.02726 2333 ft 167 kts 91°
2026-05-09 04:03 41.96583 -88.01240 2024 ft 150 kts 92°
2026-05-09 04:04 41.96601 -87.99814 1696 ft 153 kts 95°
2026-05-09 04:04 41.96593 -87.98455 1481 ft 140 kts 97°
2026-05-09 04:04 41.96559 -87.97111 1333 ft 148 kts 96°
2026-05-09 04:04 41.96544 -87.95740 1109 ft 145 kts 93°
2026-05-09 04:05 41.96574 -87.94384 886 ft 146 kts 94°
2026-05-09 04:05 41.96573 -87.93016 702 ft 146 kts 94°
2026-05-09 04:05 41.96570 -87.91801 668 ft 110 kts 91°
2026-05-09 04:05 41.96571 -87.91026 668 ft 56 kts 91°
2026-05-09 04:06 41.96586 -87.90656 668 ft 28 kts 82°
2026-05-09 04:06 41.96641 -87.90428 666 ft 16 kts 60°
2026-05-09 04:06 41.96692 -87.90311 667 ft 15 kts 60°
2026-05-09 04:06 41.96731 -87.90205 668 ft 11 kts 70°
2026-05-09 04:07 41.96745 -87.90133 668 ft 10 kts 95°
2026-05-09 04:07 41.96740 -87.90019 668 ft 15 kts 88°
2026-05-09 04:07 41.96741 -87.89864 668 ft 17 kts 90°
2026-05-09 04:07 41.96741 -87.89696 668 ft 18 kts 92°
2026-05-09 04:08 41.96741 -87.89534 667 ft 13 kts 89°
2026-05-09 04:08 41.96767 -87.89445 668 ft 9 kts 31°
2026-05-09 04:08 41.96839 -87.89436 667 ft 13 kts
2026-05-09 04:08 41.96941 -87.89436 667 ft 10 kts 360°
2026-05-09 04:09 41.97021 -87.89437 668 ft 10 kts 360°
2026-05-09 04:09 41.97043 -87.89435 668 ft 4 kts 336°
2026-05-09 04:09 41.97080 -87.89481 668 ft 8 kts 304°
2026-05-09 04:09 41.97099 -87.89577 668 ft 13 kts 276°
2026-05-09 04:10 41.97140 -87.89687 669 ft 13 kts 323°
2026-05-09 04:10 41.97219 -87.89659 669 ft 14 kts 59°
2026-05-09 04:10 41.97272 -87.89594 669 ft 11 kts 350°
2026-05-09 04:10 41.97359 -87.89572 669 ft 16 kts 33°
2026-05-09 04:11 41.97456 -87.89524 669 ft 13 kts
2026-05-09 04:11 41.97540 -87.89550 669 ft 13 kts 301°
2026-05-09 04:11 41.97570 -87.89644 669 ft 9 kts 291°
2026-05-09 04:11 41.97596 -87.89732 669 ft 7 kts 297°
2026-05-09 04:12 41.97631 -87.89747 669 ft 6 kts 24°
2026-05-09 04:12 41.97651 -87.89732 669 ft 1 kts 31°
2026-05-09 04:12 41.97652 -87.89731 669 ft 0 kts 31°